Find Kosmos-1051

NORAD ID: 11128 Int'l Des: 1978-109 Owner: GUKOSR Country: SU operational
LEOCIRCULAR

当前视图

正在加载3D地球...

关于 Kosmos-1051

正在加载描述...

即将过境

Passes for default location (London). Set your location on the main map for personalized predictions.

高度历史

Loading altitude history...

两行轨道根数

1 11128U 78109A 26151.15321431 -.00000014 00000-0 11202-4 0 9999
2 11128 74.0174 77.0350 0057837 54.9249 55.1653 12.55966848176983
Epoch: May 31, 2026 • Age: 9 hours

当前状态

高度 1416.5 km
速度 7.16 km/s
星下点 -1.37°S, 2.58°W
发射日期 Dec 5, 1978
运行时间 47.4 years
类型 other

技术详情

分类 Payload
质量 60.00 kg
干质量 60.00 kg
总质量 60.00 kg
长度 0.80 m
直径 0.80 m
跨度 0.80 m
形状 Poly
制造商 NPOPM
平台类型 Strela-1 11F625
阶段状态 In Orbit
所有者/国家 GUKOSR/SU

Most Searched